EW1993 Weather Reports


time (UTC)temp
F
wind
direction
speed
knots
gust
knots
rain 1hr
in
rain 24hr
in
rain mn
in
humidity
%
barometer
mb
20220927015154 54 186 1.7 5.2 0.00 0.11 0.00 82 1006.3
20220927013655 54 313 0.9 5.2 0.00 0.11 0.00 82 1006.8
20220927005151 54 299 3.5 9.6 0.00 0.11 0.00 84 1006.9
20220927002151 57 305 4.3 13.0 0.00 0.12 0.00 77 1006.7
20220927000652 57 271 3.5 11.3 0.00 0.12 0.00 72 1006.6
20220926235319 57 255 4.3 14.8 0.00 0.12 0.00 73 1006.5
20220926225157 57 99 3.5 10.4 0.00 0.12 0.12 72 1006.7
20220926225152 57 288 3.5 15.6 0.00 0.12 0.12 72 1006.5
20220926215152 57 203 3.5 12.2 0.00 0.12 0.12 72 1006.4
20220926212150 58 148 4.3 10.4 0.00 0.12 0.12 70 1006.5
20220926210653 58 186 5.2 13.9 0.00 0.12 0.12 70 1006.7
20220926202152 58 229 5.2 13.9 0.00 0.12 0.12 71 1006.6
20220926200654 57 232 4.3 13.0 0.00 0.12 0.12 71 1006.5
20220926195327 58 276 4.3 13.0 0.00 0.12 0.12 71 1006.6
20220926185150 58 163 4.3 13.0 0.00 0.12 0.12 70 1006.4
20220926182151 57 272 4.3 11.3 0.00 0.12 0.12 69 1006.3
20220926175152 58 155 4.3 13.9 0.00 0.12 0.12 72 1006.0
20220926172152 58 195 6.1 16.5 0.00 0.12 0.12 67 1005.8
20220926165150 59 208 5.2 13.0 0.00 0.12 0.12 66 1005.7
20220926163656 60 217 4.3 13.9 0.00 0.12 0.12 71 1005.4
20220926162150 60 184 6.1 14.8 0.00 0.12 0.12 65 1005.5
20220926153652 61 306 5.2 15.6 0.00 0.12 0.12 64 1005.2
20220926150652 60 170 5.2 14.8 0.00 0.12 0.12 65 1005.0
20220926142151 61 248 5.2 16.5 0.00 0.12 0.12 64 1004.9
20220926135151 63 227 5.2 13.0 0.00 0.12 0.12 57 1004.5
20220926132152 63 197 5.2 14.8 0.00 0.12 0.12 52 1004.3
20220926125157 60 273 5.2 14.8 0.00 0.12 0.12 67 1004.5
20220926125151 62 260 6.1 13.9 0.00 0.12 0.12 59 1004.5
20220926120653 61 283 5.2 14.8 0.00 0.12 0.12 67 1004.3
20220926112151 60 204 5.2 13.0 0.00 0.12 0.12 70 1004.4
20220926105151 60 135 4.3 17.4 0.00 0.12 0.12 67 1004.4
20220926103654 60 190 6.1 14.8 0.00 0.12 0.12 67 1004.4
20220926100655 60 215 6.1 14.8 0.00 0.12 0.12 71 1004.4
20220926092152 59 230 4.3 13.0 0.00 0.12 0.12 71 1004.0
20220926090653 58 254 4.3 14.8 0.00 0.12 0.12 72 1003.5
20220926083652 58 259 3.5 8.7 0.00 0.12 0.12 77 1003.6
20220926075150 58 154 4.3 11.3 0.00 0.12 0.12 77 1003.5
20220926072154 58 296 4.3 13.0 0.00 0.12 0.12 80 1003.0
20220926065156 58 189 4.3 12.2 0.00 0.12 0.12 84 1003.0
20220926062155 58 314 5.2 13.9 0.02 0.12 0.12 85 1002.8
20220926060657 58 184 4.3 14.8 0.03 0.12 0.12 89 1002.8
20220926053657 59 253 4.3 13.9 0.01 0.10 0.10 95 1003.1
20220926045154 57 144 3.5 10.4 0.00 0.09 0.09 95 1003.6
20220926043658 57 165 4.3 13.0 0.01 0.09 0.09 95 1004.4
20220926035152 57 142 3.5 8.7 0.05 0.09 0.09 95 1005.2
20220926032152 57 131 3.5 7.8 0.06 0.08 0.08 94 1006.5
20220926030650 56 151 0.9 6.1 0.03 0.04 0.04 93 1007.0